Weather History for Sandane, Norway

Change the Weather History Date:

Wednesday, November 21, 2012

  Actual Average Record
Temperature  
Mean Temperature 50 °F -  
Max Temperature 55 °F 36 °F 55 °F (2012)
Min Temperature 46 °F 31 °F 23 °F (2002)
Degree Days  
Heating Degree Days 14    
Moisture  
Dew Point 38 °F    
Average Humidity 62    
Maximum Humidity 76    
Minimum Humidity 47    
Precipitation  
Precipitation 0.00 in - - ()
Sea Level Pressure  
Sea Level Pressure 29.74 in    
Wind  
Wind Speed 10 mph ()    
Max Wind Speed 22 mph    
Max Gust Speed 37 mph    
Visibility 6.2 miles    
Events Rain    
Averages and records for this station are not official NWS values.
T = Trace of Precipitation, MM = Missing Value Source: Averaged Metar Reports

Daily Weather History Graph

Daily Weather History Graph

Search for Another Location

Airport:

Trip Planner

Search our weather history database for the weather conditions in past years. The results will help you decide how hot, cold, wet, or windy it might be!

Date:

Astronomy

Nov. 21, 2012 Rise Set
Actual Time 9:02 AM CET 3:39 PM CET
Civil Twilight 8:07 AM CET 4:35 PM CET
Nautical Twilight 7:10 AM CET 5:32 PM CET
Astronomical Twilight 6:17 AM CET 6:24 PM CET
Moon 1:35 PM CET (11/21) 12:06 AM CET (11/21)
Length of Visible Light 8h 28m
Length of Day
6h 36m
First Quarter, 59% of the Moon is Illuminated
Nov 21
First Quarter
Nov 28
Full
Dec 6
Last Quarter
Dec 13
New
Dec 20
First Quarter

Hourly Weather History & Observations

Time (CET) Temp. Windchill Dew Point Humidity Pressure Visibility Wind Dir Wind Speed Gust Speed Precip Events Conditions
5:50 AM 55.4 °F - 39.2 °F 54% 29.59 in 6.2 mi South 21.9 mph 36.8 mph N/A   Mostly Cloudy
6:20 AM 55.4 °F - 39.2 °F 54% 29.62 in 6.2 mi South 20.7 mph 33.4 mph N/A   Mostly Cloudy
6:50 AM 53.6 °F - 39.2 °F 58% 29.62 in 6.2 mi South 19.6 mph - N/A   Mostly Cloudy
7:20 AM 55.4 °F - 37.4 °F 51% 29.65 in 6.2 mi SE 12.7 mph - N/A   Mostly Cloudy
7:50 AM 55.4 °F - 35.6 °F 47% 29.65 in 6.2 mi South 21.9 mph - N/A   Mostly Cloudy
8:20 AM 53.6 °F - 35.6 °F 51% 29.68 in 6.2 mi South 20.7 mph - N/A   Mostly Cloudy
9:20 AM 51.8 °F - 37.4 °F 58% 29.68 in 6.2 mi East 8.1 mph - N/A   Mostly Cloudy
9:50 AM 53.6 °F - 35.6 °F 51% 29.71 in 6.2 mi South 8.1 mph - N/A   Mostly Cloudy
10:20 AM 51.8 °F - 37.4 °F 58% 29.74 in 6.2 mi East 3.5 mph - N/A   Mostly Cloudy
10:50 AM 50.0 °F - 37.4 °F 62% 29.74 in 6.2 mi South 11.5 mph - N/A   Mostly Cloudy
11:20 AM 50.0 °F - 39.2 °F 66% 29.77 in 6.2 mi East 6.9 mph - N/A   Mostly Cloudy
11:50 AM 50.0 °F - 37.4 °F 62% 29.77 in 6.2 mi ENE 8.1 mph - N/A   Mostly Cloudy
12:20 PM 50.0 °F - 37.4 °F 62% 29.77 in 6.2 mi ENE 11.5 mph - N/A   Mostly Cloudy
12:50 PM 51.8 °F - 37.4 °F 58% 29.77 in 6.2 mi SE 8.1 mph - N/A   Mostly Cloudy
1:20 PM 50.0 °F - 37.4 °F 62% 29.77 in 6.2 mi SSE 8.1 mph 23.0 mph N/A   Mostly Cloudy
1:50 PM 51.8 °F - 37.4 °F 58% 29.77 in 6.2 mi South 15.0 mph - N/A   Mostly Cloudy
2:20 PM 50.0 °F - 37.4 °F 62% 29.77 in 6.2 mi South 5.8 mph - N/A   Mostly Cloudy
2:50 PM 50.0 °F - 37.4 °F 62% 29.77 in 6.2 mi Variable 3.5 mph - N/A   Mostly Cloudy
3:20 PM 50.0 °F - 37.4 °F 62% 29.77 in 6.2 mi Variable 3.5 mph - N/A Rain Light Rain Showers
3:50 PM 50.0 °F - 37.4 °F 62% 29.80 in 6.2 mi South 4.6 mph - N/A   Mostly Cloudy
4:20 PM 50.0 °F - 37.4 °F 62% 29.77 in 6.2 mi Variable 3.5 mph - N/A   Mostly Cloudy
4:50 PM 50.0 °F - 39.2 °F 66% 29.77 in 6.2 mi Variable 2.3 mph - N/A   Mostly Cloudy
5:20 PM 48.2 °F - 39.2 °F 71% 29.77 in 6.2 mi NE 5.8 mph - N/A   Mostly Cloudy
5:50 PM 48.2 °F - 39.2 °F 71% 29.77 in 6.2 mi ENE 4.6 mph - N/A   Mostly Cloudy
6:20 PM 48.2 °F - 39.2 °F 71% 29.77 in 6.2 mi NE 4.6 mph - N/A   Mostly Cloudy
6:50 PM 48.2 °F - 37.4 °F 66% 29.77 in 6.2 mi Variable 2.3 mph - N/A   Scattered Clouds
7:20 PM 48.2 °F - 37.4 °F 66% 29.77 in 6.2 mi Variable 1.2 mph - N/A   Mostly Cloudy
7:50 PM 46.4 °F - 39.2 °F 76% 29.77 in 6.2 mi Variable 2.3 mph - N/A   Mostly Cloudy
8:20 PM 46.4 °F 45.2 °F 39.2 °F 76% 29.77 in 6.2 mi ENE 3.5 mph - N/A   Mostly Cloudy
8:50 PM 46.4 °F - 39.2 °F 76% 29.77 in 6.2 mi Variable 2.3 mph - N/A   Mostly Cloudy